Location: Tierra del Sol
(32.6128°N, 116.3319°W)
Time: 23:45:39
(UTC-07:00)

Tiangong 2 - Pass Details

Date: 07 October 2017
Orbit: 388 x 391 km, 42.8° (Epoch: 20 October)

Event Time Altitude Azimuth Distance (km) Brightness Sun altitude
Exits shadow 05:17:50 41° 184° (S) 573 1.8 -18.9°
Maximum altitude 05:18:26 49° 145° (SE) 510 1.8 -18.8°
Drops below altitude 10° 05:21:33 10° 69° (ENE) 1,420 5.1 -18.1°
Sets 05:23:40 0° 64° (ENE) 2,278 6.3 -17.7°
